Wetterdaten: Woche 02.01.12 - 08.01.12 (KW1)
Datum Zeit Temperatur Luftfeuchte Luftdruck Niederschlag Windrichtung Sonnenschein Solar Wind
02.01.2012 00:00 5,6 C 97 % 1014,3 hPa 0,0 l/m SW 0,00 h 0 W/m 9,5 km/h (2 Bft)
02.01.2012 01:00 5,2 C 97 % 1013,8 hPa 0,0 l/m SW 0,00 h 0 W/m 7,4 km/h (2 Bft)
02.01.2012 02:00 5,8 C 97 % 1013,5 hPa 0,0 l/m SW 0,00 h 0 W/m 11,2 km/h (2 Bft)
02.01.2012 03:00 5,7 C 93 % 1013,0 hPa 0,0 l/m S-SW 0,00 h 0 W/m 9,7 km/h (2 Bft)
02.01.2012 04:00 5,0 C 94 % 1012,1 hPa 0,0 l/m SW 0,00 h 0 W/m 10,6 km/h (2 Bft)
02.01.2012 05:00 5,1 C 94 % 1011,5 hPa 0,0 l/m SW 0,00 h 0 W/m 9,4 km/h (2 Bft)
02.01.2012 06:00 4,2 C 94 % 1011,1 hPa 0,0 l/m SW 0,00 h 0 W/m 5,1 km/h (1 Bft)
02.01.2012 07:00 3,6 C 95 % 1010,9 hPa 0,0 l/m SW 0,00 h 0 W/m 2,5 km/h (1 Bft)
02.01.2012 08:00 3,5 C 96 % 1010,6 hPa 0,0 l/m N 0,00 h 10 W/m 2,1 km/h (1 Bft)
02.01.2012 09:00 4,0 C 97 % 1010,6 hPa 0,0 l/m SW 0,00 h 35 W/m 4,5 km/h (1 Bft)
02.01.2012 10:00 5,6 C 96 % 1010,7 hPa 0,0 l/m SW 0,00 h 68 W/m 5,9 km/h (2 Bft)
02.01.2012 11:00 7,4 C 91 % 1010,6 hPa 0,0 l/m SW 0,00 h 94 W/m 10,7 km/h (2 Bft)
02.01.2012 12:00 8,9 C 86 % 1010,5 hPa 0,2 l/m SW 0,00 h 72 W/m 17,4 km/h (3 Bft)
02.01.2012 13:00 8,1 C 91 % 1011,1 hPa 2,8 l/m W 0,00 h 14 W/m 30,7 km/h (5 Bft)
02.01.2012 14:00 7,2 C 94 % 1011,9 hPa 0,8 l/m W-SW 0,00 h 22 W/m 26,8 km/h (4 Bft)
02.01.2012 15:00 6,8 C 93 % 1013,4 hPa 0,0 l/m W-SW 0,00 h 24 W/m 20,4 km/h (4 Bft)
02.01.2012 16:00 6,5 C 92 % 1014,7 hPa 0,0 l/m W-SW 0,00 h 6 W/m 14,5 km/h (3 Bft)
02.01.2012 17:00 6,2 C 93 % 1015,6 hPa 0,0 l/m W-SW 0,00 h 0 W/m 15,4 km/h (3 Bft)
02.01.2012 18:00 5,6 C 93 % 1016,6 hPa 0,0 l/m W-SW 0,00 h 0 W/m 19,6 km/h (3 Bft)
02.01.2012 19:00 5,1 C 93 % 1017,3 hPa 0,0 l/m SW 0,00 h 0 W/m 15,4 km/h (3 Bft)
02.01.2012 20:00 4,8 C 93 % 1017,9 hPa 0,2 l/m W 0,00 h 0 W/m 14,2 km/h (3 Bft)
02.01.2012 21:00 4,6 C 93 % 1018,9 hPa 0,0 l/m SW 0,00 h 0 W/m 10,9 km/h (2 Bft)
02.01.2012 22:00 3,8 C 94 % 1019,6 hPa 0,0 l/m SW 0,00 h 0 W/m 7,5 km/h (2 Bft)
02.01.2012 23:00 3,3 C 96 % 1020,6 hPa 0,0 l/m SW 0,00 h 0 W/m 10,0 km/h (2 Bft)
03.01.2012 00:00 3,3 C 97 % 1021,3 hPa 0,0 l/m W-SW 0,00 h 0 W/m 12,0 km/h (2 Bft)
03.01.2012 01:00 3,2 C 95 % 1021,9 hPa 0,0 l/m W-SW 0,00 h 0 W/m 10,2 km/h (2 Bft)
03.01.2012 02:00 2,8 C 93 % 1023,1 hPa 0,0 l/m SW 0,00 h 0 W/m 7,1 km/h (2 Bft)
03.01.2012 03:00 2,5 C 94 % 1023,5 hPa 0,0 l/m W-SW 0,00 h 0 W/m 13,0 km/h (3 Bft)
03.01.2012 04:00 3,0 C 94 % 1024,1 hPa 0,0 l/m W 0,00 h 0 W/m 14,4 km/h (3 Bft)
03.01.2012 05:00 2,9 C 93 % 1024,9 hPa 0,0 l/m W-SW 0,00 h 0 W/m 15,0 km/h (3 Bft)
03.01.2012 06:00 2,7 C 92 % 1025,3 hPa 0,0 l/m SW 0,00 h 0 W/m 20,4 km/h (4 Bft)
03.01.2012 07:00 2,2 C 90 % 1025,5 hPa 0,0 l/m W-SW 0,00 h 0 W/m 18,5 km/h (3 Bft)
03.01.2012 08:00 1,8 C 91 % 1025,1 hPa 0,0 l/m SW 0,00 h 12 W/m 12,8 km/h (3 Bft)
03.01.2012 09:00 1,7 C 94 % 1024,9 hPa 0,0 l/m SW 0,08 h 43 W/m 13,4 km/h (3 Bft)
03.01.2012 10:00 3,3 C 91 % 1024,5 hPa 0,0 l/m W-SW 0,92 h 183 W/m 21,6 km/h (4 Bft)
03.01.2012 11:00 4,5 C 82 % 1023,5 hPa 0,0 l/m W 0,83 h 253 W/m 22,6 km/h (4 Bft)
03.01.2012 12:00 5,5 C 76 % 1022,6 hPa 0,0 l/m W-SW 1,00 h 308 W/m 26,4 km/h (4 Bft)
03.01.2012 13:00 6,0 C 72 % 1021,6 hPa 0,0 l/m W-SW 1,00 h 288 W/m 27,4 km/h (4 Bft)
03.01.2012 14:00 6,2 C 67 % 1020,8 hPa 0,0 l/m SW 0,67 h 167 W/m 29,4 km/h (5 Bft)
03.01.2012 15:00 5,7 C 65 % 1020,0 hPa 0,0 l/m W-SW 0,00 h 27 W/m 30,0 km/h (5 Bft)
03.01.2012 16:00 5,6 C 62 % 1019,4 hPa 0,0 l/m W-SW 0,00 h 6 W/m 32,9 km/h (5 Bft)
03.01.2012 17:00 5,4 C 63 % 1018,8 hPa 0,0 l/m W-SW 0,00 h 0 W/m 33,4 km/h (5 Bft)
03.01.2012 18:00 5,2 C 66 % 1018,5 hPa 0,0 l/m W-SW 0,00 h 0 W/m 29,7 km/h (5 Bft)
03.01.2012 19:00 5,0 C 70 % 1018,8 hPa 0,0 l/m W-SW 0,00 h 0 W/m 28,0 km/h (4 Bft)
03.01.2012 20:00 5,5 C 75 % 1018,3 hPa 0,0 l/m W 0,00 h 0 W/m 31,7 km/h (5 Bft)
03.01.2012 21:00 5,7 C 76 % 1017,4 hPa 0,0 l/m W-SW 0,00 h 0 W/m 32,3 km/h (5 Bft)
03.01.2012 22:00 6,7 C 74 % 1017,0 hPa 0,0 l/m W-SW 0,00 h 0 W/m 35,0 km/h (5 Bft)
03.01.2012 23:00 7,4 C 72 % 1016,1 hPa 0,0 l/m W-SW 0,00 h 0 W/m 36,3 km/h (5 Bft)
04.01.2012 00:00 7,7 C 69 % 1015,4 hPa 0,0 l/m W-SW 0,00 h 0 W/m 35,7 km/h (5 Bft)
04.01.2012 01:00 7,3 C 78 % 1014,2 hPa 0,2 l/m SW 0,00 h 0 W/m 33,1 km/h (5 Bft)
04.01.2012 02:00 7,1 C 85 % 1013,5 hPa 0,0 l/m W-SW 0,00 h 0 W/m 35,7 km/h (5 Bft)
04.01.2012 03:00 7,1 C 84 % 1012,6 hPa 0,2 l/m W-SW 0,00 h 0 W/m 31,2 km/h (5 Bft)
04.01.2012 04:00 7,5 C 86 % 1012,0 hPa 0,2 l/m W-SW 0,00 h 0 W/m 34,2 km/h (5 Bft)
04.01.2012 05:00 7,3 C 89 % 1012,3 hPa 2,6 l/m W-SW 0,00 h 0 W/m 29,5 km/h (5 Bft)
04.01.2012 06:00 5,1 C 91 % 1013,7 hPa 3,8 l/m NW 0,00 h 0 W/m 13,4 km/h (3 Bft)
04.01.2012 07:00 4,1 C 93 % 1015,0 hPa 0,8 l/m W 0,00 h 0 W/m 19,5 km/h (3 Bft)
04.01.2012 08:00 3,8 C 93 % 1016,8 hPa 0,0 l/m W-SW 0,00 h 7 W/m 18,2 km/h (3 Bft)
04.01.2012 09:00 4,0 C 93 % 1018,6 hPa 0,0 l/m W-SW 0,00 h 23 W/m 22,5 km/h (4 Bft)
04.01.2012 10:00 3,6 C 92 % 1020,0 hPa 0,0 l/m W 0,00 h 28 W/m 27,1 km/h (4 Bft)
04.01.2012 11:00 2,0 C 94 % 1020,4 hPa 0,2 l/m W 0,08 h 85 W/m 19,0 km/h (3 Bft)
04.01.2012 12:00 3,5 C 91 % 1020,6 hPa 1,2 l/m W-NW 0,42 h 167 W/m 26,9 km/h (4 Bft)
04.01.2012 13:00 3,5 C 85 % 1020,6 hPa 0,8 l/m W-NW 0,83 h 253 W/m 29,9 km/h (5 Bft)
04.01.2012 14:00 4,0 C 81 % 1021,4 hPa 0,2 l/m W-NW 0,33 h 126 W/m 21,4 km/h (4 Bft)
04.01.2012 15:00 4,1 C 74 % 1022,6 hPa 0,2 l/m W-NW 0,50 h 76 W/m 19,7 km/h (3 Bft)
04.01.2012 16:00 3,6 C 77 % 1023,3 hPa 0,0 l/m W 0,17 h 14 W/m 16,5 km/h (3 Bft)
04.01.2012 17:00 2,9 C 78 % 1023,1 hPa 0,0 l/m SW 0,00 h 0 W/m 12,2 km/h (2 Bft)
04.01.2012 18:00 2,2 C 82 % 1022,9 hPa 0,0 l/m W-SW 0,00 h 0 W/m 18,4 km/h (3 Bft)
04.01.2012 19:00 2,2 C 83 % 1023,1 hPa 0,0 l/m W-SW 0,00 h 0 W/m 21,4 km/h (4 Bft)
04.01.2012 20:00 2,2 C 82 % 1022,8 hPa 0,0 l/m W-SW 0,00 h 0 W/m 21,2 km/h (4 Bft)
04.01.2012 21:00 2,7 C 79 % 1021,9 hPa 0,0 l/m SW 0,00 h 0 W/m 28,2 km/h (4 Bft)
04.01.2012 22:00 2,8 C 76 % 1020,9 hPa 0,0 l/m W-SW 0,00 h 0 W/m 26,7 km/h (4 Bft)
04.01.2012 23:00 3,3 C 71 % 1019,3 hPa 0,0 l/m W-SW 0,00 h 0 W/m 35,9 km/h (5 Bft)
05.01.2012 00:00 3,5 C 69 % 1017,6 hPa 0,0 l/m W-SW 0,00 h 0 W/m 31,9 km/h (5 Bft)
05.01.2012 01:00 3,7 C 67 % 1015,2 hPa 0,0 l/m W-SW 0,00 h 0 W/m 39,3 km/h (6 Bft)
05.01.2012 02:00 4,0 C 64 % 1013,5 hPa 0,0 l/m W-SW 0,00 h 0 W/m 43,8 km/h (6 Bft)
05.01.2012 03:00 4,6 C 67 % 1012,0 hPa 0,0 l/m W-SW 0,00 h 0 W/m 45,2 km/h (6 Bft)
05.01.2012 04:00 5,1 C 67 % 1009,3 hPa 0,2 l/m W-SW 0,00 h 0 W/m 54,3 km/h (7 Bft)
05.01.2012 05:00 5,0 C 71 % 1008,2 hPa 0,0 l/m W-SW 0,00 h 0 W/m 47,9 km/h (6 Bft)
05.01.2012 06:00 4,6 C 78 % 1006,8 hPa 0,0 l/m W-SW 0,00 h 0 W/m 47,7 km/h (6 Bft)
05.01.2012 07:00 3,7 C 87 % 1005,8 hPa 0,2 l/m W-SW 0,00 h 0 W/m 46,0 km/h (6 Bft)
05.01.2012 08:00 3,3 C 91 % 1005,0 hPa 1,4 l/m W-SW 0,00 h 6 W/m 43,7 km/h (6 Bft)
05.01.2012 09:00 3,1 C 93 % 1004,0 hPa 1,8 l/m W-SW 0,00 h 15 W/m 49,2 km/h (6 Bft)
05.01.2012 10:00 3,0 C 93 % 1002,2 hPa 1,0 l/m W-SW 0,00 h 34 W/m 52,0 km/h (7 Bft)
05.01.2012 11:00 3,1 C 93 % 1000,6 hPa 0,4 l/m W-SW 0,00 h 38 W/m 47,1 km/h (6 Bft)
05.01.2012 12:00 3,3 C 93 % 998,1 hPa 0,2 l/m W-SW 0,00 h 53 W/m 47,5 km/h (6 Bft)
05.01.2012 13:00 3,6 C 93 % 996,2 hPa 0,2 l/m W-SW 0,00 h 56 W/m 44,5 km/h (6 Bft)
05.01.2012 14:00 3,9 C 94 % 994,2 hPa 0,2 l/m SW 0,00 h 38 W/m 46,0 km/h (6 Bft)
05.01.2012 15:00 4,1 C 93 % 994,5 hPa 5,4 l/m SW 0,00 h 19 W/m 45,4 km/h (6 Bft)
05.01.2012 16:00 1,4 C 94 % 997,5 hPa 4,2 l/m W-NW 0,00 h 0 W/m 17,6 km/h (3 Bft)
05.01.2012 17:00 1,2 C 96 % 997,9 hPa 1,2 l/m W 0,00 h 0 W/m 15,2 km/h (3 Bft)
05.01.2012 18:00 1,3 C 96 % 999,3 hPa 0,0 l/m SW 0,00 h 0 W/m 12,8 km/h (3 Bft)
05.01.2012 19:00 1,3 C 96 % 1000,7 hPa 0,2 l/m W-SW 0,00 h 0 W/m 17,0 km/h (3 Bft)
05.01.2012 20:00 1,6 C 97 % 1001,3 hPa 0,0 l/m W-SW 0,00 h 0 W/m 14,2 km/h (3 Bft)
05.01.2012 21:00 1,8 C 96 % 1001,2 hPa 0,2 l/m W-SW 0,00 h 0 W/m 13,7 km/h (3 Bft)
05.01.2012 22:00 1,5 C 96 % 1001,3 hPa 1,2 l/m W-NW 0,00 h 0 W/m 21,0 km/h (4 Bft)
05.01.2012 23:00 1,8 C 94 % 1001,6 hPa 0,2 l/m W-NW 0,00 h 0 W/m 25,8 km/h (4 Bft)
06.01.2012 00:00 1,6 C 95 % 1002,5 hPa 0,2 l/m W-NW 0,00 h 0 W/m 25,2 km/h (4 Bft)
06.01.2012 01:00 0,7 C 95 % 1004,4 hPa 0,6 l/m N-NW 0,00 h 0 W/m 34,2 km/h (5 Bft)
06.01.2012 02:00 0,1 C 95 % 1005,7 hPa 0,4 l/m W-NW 0,00 h 0 W/m 21,2 km/h (4 Bft)
06.01.2012 03:00 0,7 C 91 % 1007,2 hPa 0,0 l/m W 0,00 h 0 W/m 26,2 km/h (4 Bft)
06.01.2012 04:00 0,8 C 90 % 1008,6 hPa 0,2 l/m W-NW 0,00 h 0 W/m 25,1 km/h (4 Bft)
06.01.2012 05:00 0,4 C 93 % 1009,6 hPa 0,2 l/m W 0,00 h 0 W/m 16,0 km/h (3 Bft)
06.01.2012 06:00 0,3 C 94 % 1010,8 hPa 0,0 l/m W 0,00 h 0 W/m 19,2 km/h (3 Bft)
06.01.2012 07:00 0,5 C 91 % 1011,7 hPa 0,0 l/m W-NW 0,00 h 0 W/m 16,4 km/h (3 Bft)
06.01.2012 08:00 0,7 C 89 % 1012,7 hPa 0,0 l/m W-NW 0,00 h 8 W/m 19,8 km/h (4 Bft)
06.01.2012 09:00 1,0 C 89 % 1013,8 hPa 0,0 l/m W-NW 0,00 h 34 W/m 19,7 km/h (3 Bft)
06.01.2012 10:00 1,4 C 88 % 1014,8 hPa 0,0 l/m W-NW 0,00 h 43 W/m 22,1 km/h (4 Bft)
06.01.2012 11:00 1,5 C 88 % 1015,5 hPa 0,0 l/m W-NW 0,00 h 44 W/m 21,8 km/h (4 Bft)
06.01.2012 12:00 1,6 C 89 % 1016,2 hPa 0,2 l/m W-NW 0,00 h 68 W/m 21,3 km/h (4 Bft)
06.01.2012 13:00 1,9 C 90 % 1016,7 hPa 0,2 l/m W-NW 0,33 h 151 W/m 25,5 km/h (4 Bft)
06.01.2012 14:00 2,1 C 90 % 1017,7 hPa 0,0 l/m W-NW 0,00 h 55 W/m 19,7 km/h (3 Bft)
06.01.2012 15:00 2,2 C 90 % 1019,2 hPa 0,0 l/m W-NW 0,00 h 28 W/m 16,1 km/h (3 Bft)
06.01.2012 16:00 2,1 C 90 % 1020,6 hPa 0,0 l/m W 0,08 h 11 W/m 18,1 km/h (3 Bft)
06.01.2012 17:00 2,1 C 90 % 1021,9 hPa 0,0 l/m W 0,00 h 0 W/m 16,2 km/h (3 Bft)
06.01.2012 18:00 1,7 C 92 % 1023,1 hPa 0,2 l/m W 0,00 h 0 W/m 9,5 km/h (2 Bft)
06.01.2012 19:00 1,7 C 93 % 1023,9 hPa 0,0 l/m W-SW 0,00 h 0 W/m 15,4 km/h (3 Bft)
06.01.2012 20:00 1,7 C 93 % 1024,6 hPa 0,0 l/m W 0,00 h 0 W/m 12,8 km/h (3 Bft)
06.01.2012 21:00 1,7 C 93 % 1025,1 hPa 0,0 l/m W 0,00 h 0 W/m 10,1 km/h (2 Bft)
06.01.2012 22:00 1,3 C 93 % 1025,0 hPa 0,0 l/m W-SW 0,00 h 0 W/m 15,7 km/h (3 Bft)
06.01.2012 23:00 1,0 C 94 % 1025,6 hPa 0,0 l/m W-SW 0,00 h 0 W/m 10,7 km/h (2 Bft)
07.01.2012 00:00 0,8 C 94 % 1025,5 hPa 0,0 l/m W-SW 0,00 h 0 W/m 10,3 km/h (2 Bft)
07.01.2012 01:00 0,7 C 94 % 1025,4 hPa 0,0 l/m W-SW 0,00 h 0 W/m 12,6 km/h (3 Bft)
07.01.2012 02:00 0,3 C 94 % 1025,4 hPa 0,0 l/m W-SW 0,00 h 0 W/m 9,9 km/h (2 Bft)
07.01.2012 03:00 0,4 C 95 % 1025,0 hPa 0,0 l/m W-SW 0,00 h 0 W/m 16,9 km/h (3 Bft)
07.01.2012 04:00 0,6 C 93 % 1024,6 hPa 0,0 l/m W-SW 0,00 h 0 W/m 19,3 km/h (3 Bft)
07.01.2012 05:00 0,5 C 90 % 1024,3 hPa 0,0 l/m W-SW 0,00 h 0 W/m 19,0 km/h (3 Bft)
07.01.2012 06:00 0,2 C 88 % 1023,9 hPa 0,0 l/m W-SW 0,00 h 0 W/m 23,3 km/h (4 Bft)
07.01.2012 07:00 0,6 C 86 % 1023,7 hPa 0,0 l/m W-SW 0,00 h 0 W/m 29,0 km/h (5 Bft)
07.01.2012 08:00 0,9 C 83 % 1023,5 hPa 0,0 l/m W-SW 0,00 h 12 W/m 30,0 km/h (5 Bft)
07.01.2012 09:00 1,1 C 84 % 1023,1 hPa 0,0 l/m W-SW 0,00 h 30 W/m 35,7 km/h (5 Bft)
07.01.2012 10:00 0,7 C 91 % 1022,5 hPa 0,2 l/m W-SW 0,00 h 45 W/m 34,1 km/h (5 Bft)
07.01.2012 11:00 1,2 C 86 % 1021,7 hPa 0,0 l/m W-SW 0,00 h 58 W/m 32,7 km/h (5 Bft)
07.01.2012 12:00 1,4 C 87 % 1020,8 hPa 0,0 l/m W-SW 0,00 h 40 W/m 36,9 km/h (5 Bft)
07.01.2012 13:00 0,9 C 92 % 1020,0 hPa 0,2 l/m W-SW 0,00 h 38 W/m 35,0 km/h (5 Bft)
07.01.2012 14:00 1,2 C 93 % 1019,4 hPa 0,0 l/m W-SW 0,00 h 41 W/m 36,1 km/h (5 Bft)
07.01.2012 15:00 1,3 C 93 % 1018,9 hPa 0,0 l/m W-SW 0,00 h 25 W/m 33,3 km/h (5 Bft)
07.01.2012 16:00 1,6 C 94 % 1018,8 hPa 0,0 l/m W-SW 0,00 h 7 W/m 33,0 km/h (5 Bft)
07.01.2012 17:00 1,8 C 95 % 1019,0 hPa 0,0 l/m W-SW 0,00 h 0 W/m 28,3 km/h (4 Bft)
07.01.2012 18:00 2,1 C 96 % 1019,0 hPa 0,0 l/m W-SW 0,00 h 0 W/m 26,4 km/h (4 Bft)
07.01.2012 19:00 2,5 C 96 % 1019,0 hPa 0,2 l/m W-SW 0,00 h 0 W/m 22,8 km/h (4 Bft)
07.01.2012 20:00 3,2 C 96 % 1019,8 hPa 0,0 l/m W 0,00 h 0 W/m 24,0 km/h (4 Bft)
07.01.2012 21:00 3,2 C 93 % 1020,5 hPa 0,0 l/m W 0,00 h 0 W/m 18,4 km/h (3 Bft)
07.01.2012 22:00 3,1 C 90 % 1020,9 hPa 0,0 l/m W 0,00 h 0 W/m 18,5 km/h (3 Bft)
07.01.2012 23:00 3,2 C 88 % 1021,1 hPa 0,0 l/m W-NW 0,00 h 0 W/m 17,6 km/h (3 Bft)
08.01.2012 00:00 2,9 C 88 % 1020,9 hPa 0,0 l/m W 0,00 h 0 W/m 13,7 km/h (3 Bft)
08.01.2012 01:00 2,9 C 87 % 1020,8 hPa 0,0 l/m W 0,00 h 0 W/m 16,4 km/h (3 Bft)
08.01.2012 02:00 2,9 C 86 % 1021,2 hPa 0,0 l/m W 0,00 h 0 W/m 14,9 km/h (3 Bft)
08.01.2012 03:00 2,8 C 85 % 1021,4 hPa 0,0 l/m W 0,00 h 0 W/m 15,7 km/h (3 Bft)
08.01.2012 04:00 2,8 C 84 % 1021,3 hPa 0,0 l/m SW 0,00 h 0 W/m 16,6 km/h (3 Bft)
08.01.2012 05:00 2,6 C 87 % 1021,3 hPa 0,0 l/m W-SW 0,00 h 0 W/m 16,4 km/h (3 Bft)
08.01.2012 06:00 2,2 C 89 % 1020,9 hPa 0,0 l/m W-SW 0,00 h 0 W/m 13,8 km/h (3 Bft)
08.01.2012 07:00 2,0 C 91 % 1020,7 hPa 0,0 l/m SW 0,00 h 0 W/m 16,9 km/h (3 Bft)
08.01.2012 08:00 1,8 C 93 % 1020,9 hPa 0,0 l/m W-SW 0,00 h 5 W/m 12,2 km/h (2 Bft)
08.01.2012 09:00 2,2 C 93 % 1021,4 hPa 0,0 l/m W-SW 0,00 h 12 W/m 15,3 km/h (3 Bft)
08.01.2012 10:00 2,3 C 94 % 1021,5 hPa 0,2 l/m W-NW 0,00 h 55 W/m 16,2 km/h (3 Bft)
08.01.2012 11:00 2,6 C 94 % 1021,3 hPa 0,0 l/m W-SW 0,00 h 88 W/m 14,1 km/h (3 Bft)
08.01.2012 12:00 3,2 C 91 % 1021,1 hPa 0,0 l/m W-NW 0,00 h 97 W/m 15,3 km/h (3 Bft)
08.01.2012 13:00 3,8 C 88 % 1020,8 hPa 0,0 l/m W-NW 0,00 h 94 W/m 13,6 km/h (3 Bft)
08.01.2012 14:00 4,1 C 85 % 1020,8 hPa 0,0 l/m W-NW 0,00 h 60 W/m 17,3 km/h (3 Bft)
08.01.2012 15:00 3,8 C 85 % 1021,3 hPa 0,2 l/m W-NW 0,00 h 23 W/m 12,8 km/h (3 Bft)
08.01.2012 16:00 3,4 C 86 % 1021,9 hPa 0,0 l/m W 0,00 h 8 W/m 13,0 km/h (3 Bft)
08.01.2012 17:00 2,8 C 90 % 1022,5 hPa 0,6 l/m W 0,00 h 0 W/m 11,5 km/h (2 Bft)
08.01.2012 18:00 1,5 C 93 % 1023,4 hPa 0,4 l/m W 0,00 h 0 W/m 8,4 km/h (2 Bft)
08.01.2012 19:00 1,3 C 94 % 1023,7 hPa 0,6 l/m W 0,00 h 0 W/m 9,3 km/h (2 Bft)
08.01.2012 20:00 1,3 C 94 % 1024,2 hPa 0,0 l/m W 0,00 h 0 W/m 12,0 km/h (2 Bft)
08.01.2012 21:00 1,4 C 94 % 1024,7 hPa 0,0 l/m W-SW 0,00 h 0 W/m 8,8 km/h (2 Bft)
08.01.2012 22:00 1,6 C 94 % 1025,0 hPa 0,2 l/m W 0,00 h 0 W/m 13,7 km/h (3 Bft)
08.01.2012 23:00 1,9 C 93 % 1025,0 hPa 0,0 l/m W-NW 0,00 h 0 W/m 15,0 km/h (3 Bft)
Min-Datum _ 06.01.12 03.01.12 05.01.12 - - - - 02.01.12
_ Min-Zeit 01:55 16:20 15:05 - - - - 06:50
Minimum _ -0,1 C 62 % 992,9 hPa - - - - 0,0 km/h (0 Bft)
Max-Datum _ 02.01.12 02.01.12 06.01.12 05.01.12 - 03.01.12 04.01.12 05.01.12
_ Max-Zeit 12:30 00:15 23:35 15:45 - 09:55 12:25 04:25
Maximum _ 9,3 C 98 % 1025,9 hPa 5,4 l/m - 0,08 h 431 W/m 69,2 km/h
W-SW (8 Bft)
Durchschnitt _ 3,2 C 88 % 1016,7 hPa #37,6 l/m W-SW #7:15 h 62 W/m 22,1 km/h (4 Bft)